FW0643 Weather Reports


time (UTC)temp
C
wind
direction
speed
KPH
gust
KPH
rain 1hr
cm
rain 24hr
cm
rain mn
cm
humidity
%
barometer
mb
20230128010204 0 225 0.0 0.0 0.00 0.00 0.00 85 1026.5
20230128005207 0 225 0.0 0.0 0.00 0.00 0.00 85 1026.4
20230128002306 1 225 0.0 0.0 0.00 0.00 0.00 83 1026.1
20230128001305 1 225 0.0 0.0 0.00 0.00 0.00 82 1025.9
20230128000305 1 225 0.0 0.0 0.00 0.00 0.00 82 1025.8
20230127235306 1 225 0.0 0.0 0.00 0.00 0.00 81 1025.6
20230127234303 2 225 0.0 0.0 0.00 0.00 0.00 80 1025.7
20230127233304 2 225 0.0 0.0 0.00 0.00 0.00 79 1025.6
20230127233205 2 225 0.0 0.0 0.00 0.00 0.00 79 1025.6
20230127232204 2 225 0.0 0.0 0.00 0.00 0.00 76 1025.4
20230127231206 3 225 0.0 0.0 0.00 0.00 0.00 74 1025.6
20230127230205 3 225 0.0 0.0 0.00 0.00 0.00 69 1025.4
20230127225205 4 225 0.0 0.0 0.00 0.00 0.00 66 1025.4
20230127224203 5 225 0.0 0.0 0.00 0.00 0.00 63 1025.3
20230127223205 5 225 0.0 0.0 0.00 0.00 0.00 61 1025.2
20230127223106 6 225 0.0 0.0 0.00 0.00 0.00 60 1025.2
20230127222105 6 225 0.0 0.0 0.00 0.00 0.00 54 1025.2
20230127220203 7 247 3.2 6.4 0.00 0.00 0.00 50 1025.0
20230127215206 7 247 4.8 6.4 0.00 0.00 0.00 49 1024.9
20230127214304 7 243 6.4 8.0 0.00 0.00 0.00 48 1024.9
20230127213306 7 260 4.8 8.0 0.00 0.00 0.00 49 1025.0
20230127213205 7 267 4.8 6.4 0.00 0.00 0.00 49 1025.0
20230127212204 7 225 6.4 8.0 0.00 0.00 0.00 48 1025.0
20230127212105 7 244 4.8 6.4 0.00 0.00 0.00 48 1024.9
20230127211104 7 219 3.2 6.4 0.00 0.00 0.00 47 1024.8
20230127210104 8 253 8.0 9.7 0.00 0.00 0.00 46 1024.7
20230127205203 8 236 1.6 3.2 0.00 0.00 0.00 46 1024.7
20230127203203 8 237 4.8 6.4 0.00 0.00 0.00 47 1024.6
20230127201221 7 238 4.8 8.0 0.00 0.00 0.00 47 1024.4
20230127195207 7 174 1.6 3.2 0.00 0.00 0.00 47 1024.2
20230127194305 7 244 8.0 9.7 0.00 0.00 0.00 49 1024.2
20230127194220 7 243 8.0 9.7 0.00 0.00 0.00 49 1024.2
20230127193305 7 247 3.2 4.8 0.00 0.00 0.00 49 1024.4
20230127191307 7 231 9.7 14.5 0.00 0.00 0.00 49 1024.4
20230127190304 7 251 4.8 6.4 0.00 0.00 0.00 50 1024.5
20230127185305 7 235 6.4 9.7 0.00 0.00 0.00 49 1024.5
20230127184305 7 255 6.4 8.0 0.00 0.00 0.00 49 1024.4
20230127183304 7 264 0.0 1.6 0.00 0.00 0.00 48 1024.4
20230127182306 7 284 3.2 3.2 0.00 0.00 0.00 48 1024.5
20230127181304 7 247 4.8 8.0 0.00 0.00 0.00 47 1024.6
20230127180307 7 280 4.8 8.0 0.00 0.00 0.00 47 1024.7
20230127175307 7 270 3.2 4.8 0.00 0.00 0.00 46 1024.7
20230127174305 7 281 4.8 8.0 0.00 0.00 0.00 47 1024.8
20230127173303 6 266 4.8 6.4 0.00 0.00 0.00 47 1024.9
20230127171306 7 279 4.8 8.0 0.00 0.00 0.00 45 1025.3
20230127165306 7 259 6.4 9.7 0.00 0.00 0.00 46 1025.5
20230127164404 7 260 4.8 9.7 0.00 0.00 0.00 45 1025.6
20230127163404 7 281 3.2 6.4 0.00 0.00 0.00 45 1025.6
20230127162503 7 309 4.8 6.4 0.00 0.00 0.00 45 1025.9
20230127161506 7 262 4.8 6.4 0.00 0.00 0.00 47 1025.9
20230127160504 6 260 3.2 6.4 0.00 0.00 0.00 49 1025.9
20230127153504 6 292 4.8 6.4 0.00 0.00 0.00 49 1026.2
20230127152507 6 259 4.8 8.0 0.00 0.00 0.00 51 1026.2
20230127151604 5 292 0.0 3.2 0.00 0.00 0.00 52 1026.2
20230127145705 5 299 4.8 6.4 0.00 0.00 0.00 55 1026.1
20230127144706 5 311 1.6 4.8 0.00 0.00 0.00 58 1026.1
20230127143804 4 254 4.8 4.8 0.00 0.00 0.00 60 1026.0
20230127143704 4 285 3.2 6.4 0.00 0.00 0.00 60 1025.9
20230127141707 2 202 1.6 3.2 0.00 0.00 0.00 74 1025.6
20230127140705 1 247 3.2 6.4 0.00 0.00 0.00 76 1025.6
20230127135707 1 247 1.6 3.2 0.00 0.00 0.00 82 1025.4
20230127134804 0 247 0.0 1.6 0.00 0.00 0.00 84 1025.2
20230127133904 0 247 1.6 3.2 0.00 0.00 0.00 84 1025.1
20230127132905 0 247 3.2 4.8 0.00 0.00 0.00 83 1025.0
20230127131907 0 247 3.2 6.4 0.00 0.00 0.00 84 1025.0
20230127130006 0 247 3.2 6.4 0.00 0.00 0.00 87 1024.6
20230127125103 0 247 1.6 3.2 0.00 0.00 0.00 88 1024.4
20230127124106 0 247 1.6 1.6 0.00 0.00 0.00 89 1024.4
20230127123105 -1 247 1.6 3.2 0.00 0.00 0.00 93 1024.2
20230127122105 0 247 1.6 3.2 0.00 0.00 0.00 94 1024.1
20230127121105 0 247 0.0 1.6 0.00 0.00 0.00 94 1024.0
20230127120106 0 247 0.0 0.0 0.00 0.00 0.00 93 1023.8
20230127120005 0 247 0.0 0.0 0.00 0.00 0.00 93 1023.8
20230127115004 0 247 1.6 3.2 0.00 0.00 0.00 92 1023.6
20230127114006 0 247 0.0 0.0 0.00 0.00 0.00 89 1023.5
20230127113007 0 247 0.0 3.2 0.00 0.00 0.00 88 1023.3
20230127112105 0 247 0.0 1.6 0.00 0.00 0.00 88 1023.3
20230127111107 -1 247 3.2 4.8 0.00 0.00 0.00 90 1023.1
20230127110204 -1 247 0.0 1.6 0.00 0.00 0.00 95 1022.9
20230127105305 -1 247 0.0 1.6 0.00 0.00 0.00 95 1022.8
20230127104304 -1 247 0.0 0.0 0.00 0.00 0.00 95 1022.8
20230127103304 -1 247 0.0 1.6 0.00 0.00 0.00 94 1022.6
20230127103203 -1 247 0.0 1.6 0.00 0.00 0.00 94 1022.6
20230127102305 -1 247 0.0 1.6 0.00 0.00 0.00 93 1022.6
20230127101305 0 247 0.0 1.6 0.00 0.00 0.00 93 1022.5
20230127100403 0 247 0.0 0.0 0.00 0.00 0.00 91 1022.4
20230127095404 0 247 1.6 3.2 0.00 0.00 0.00 91 1022.2
20230127094406 0 247 1.6 1.6 0.00 0.00 0.00 94 1022.0
20230127091606 -1 247 0.0 0.0 0.00 0.00 0.00 95 1021.8
20230127085706 -1 247 0.0 1.6 0.00 0.00 0.00 95 1021.8
20230127084805 -1 247 0.0 1.6 0.00 0.00 0.00 95 1021.8
20230127083004 0 247 0.0 0.0 0.00 0.00 0.00 95 1021.5
20230127081004 0 247 0.0 0.0 0.00 0.03 0.00 94 1021.3
20230127080006 0 247 0.0 0.0 0.00 0.03 0.00 94 1021.3
20230127075006 0 247 0.0 0.0 0.00 0.03 0.00 94 1021.2
20230127074004 0 247 0.0 0.0 0.00 0.03 0.00 94 1021.1
20230127073005 0 247 0.0 0.0 0.00 0.03 0.00 93 1020.9
20230127072005 0 247 0.0 0.0 0.00 0.03 0.00 93 1020.8
20230127071006 0 247 0.0 0.0 0.00 0.03 0.00 93 1020.7
20230127070105 0 247 0.0 0.0 0.00 0.03 0.00 93 1020.5
20230127065105 0 247 0.0 0.0 0.00 0.03 0.00 94 1020.5
20230127064106 0 247 0.0 1.6 0.00 0.03 0.00 94 1020.6
20230127064004 0 247 0.0 0.0 0.00 0.03 0.00 94 1020.6
20230127063007 0 247 0.0 0.0 0.00 0.03 0.00 94 1020.6
20230127060005 0 247 0.0 0.0 0.00 0.05 0.00 92 1020.3
20230127054005 0 247 0.0 0.0 0.00 0.08 0.00 91 1020.2
20230127053005 0 247 0.0 0.0 0.00 0.10 0.00 91 1020.2
20230127052005 0 247 0.0 0.0 0.00 0.10 0.00 91 1020.1
20230127051103 0 247 0.0 0.0 0.00 0.10 0.00 91 1020.2
20230127051004 0 247 0.0 0.0 0.00 0.10 0.00 90 1020.3
20230127050013 0 247 0.0 0.0 0.00 0.13 0.00 90 1020.2
20230127045012 1 247 0.0 0.0 0.00 0.13 0.13 90 1020.4
20230127044110 1 247 0.0 0.0 0.00 0.13 0.13 91 1020.5
20230127043110 1 247 0.0 0.0 0.00 0.15 0.13 90 1020.5
20230127040211 2 247 0.0 0.0 0.00 0.15 0.13 88 1020.3
20230127035214 2 247 0.0 0.0 0.00 0.18 0.13 88 1020.3
20230127034212 2 247 0.0 0.0 0.00 0.28 0.13 87 1020.2
20230127033212 2 247 0.0 0.0 0.00 0.36 0.13 84 1020.1
20230127032211 3 247 0.0 0.0 0.00 0.43 0.13 80 1020.2
20230127031211 4 247 0.0 0.0 0.00 0.51 0.13 75 1020.2
20230127024210 5 247 1.6 3.2 0.00 0.89 0.13 68 1020.0
20230127023213 5 247 3.2 3.2 0.00 1.24 0.13 68 1020.0
20230127022211 5 247 1.6 3.2 0.00 1.68 0.13 68 1019.8
20230127021310 5 247 3.2 3.2 0.00 1.70 0.13 69 1019.9
20230127020311 5 247 3.2 3.2 0.00 1.91 0.13 70 1019.7
20230127014410 5 247 3.2 3.2 0.00 2.41 0.13 73 1019.6
20230127013510 3 247 3.2 4.8 0.00 2.57 0.13 78 1019.4
20230127012511 3 225 0.0 0.0 0.00 2.92 0.13 88 1019.1
20230127011510 3 225 0.0 0.0 0.00 2.97 0.13 87 1018.9